ARA225 DGAA-DRRN

Flight info

Callsign ARA225
Flight time 1h 35m
Altitude 37000
Route LITEX1D LITEX UA603 TAMIL UG855 GAPAG SORKA1K
Aircraft B737/M-SDE2E3FGHIRWXY/LB1

Departure

Time 2026-05-04 16:29
Airport Kotoka International Airport (DGAA)

Arrival

Time 2026-05-04 18:05
Airport Diori Hamani International Airport (DRRN)
Time Latitude Longitude Altitude Speed Heading
2026-05-04 16:07 5.60099 -0.17209 209 ft 0 kts 292°
2026-05-04 16:23 5.60086 -0.17176 206 ft 2 kts 292°
2026-05-04 16:24 5.60072 -0.17142 212 ft 0 kts 292°
2026-05-04 16:26 5.60220 -0.17055 207 ft 20 kts 22°
2026-05-04 16:26 5.60824 -0.16809 214 ft 40 kts 27°
2026-05-04 16:27 5.61320 -0.16610 207 ft 35 kts 22°
2026-05-04 16:28 5.61525 -0.16325 212 ft 30 kts 162°
2026-05-04 16:28 5.59446 -0.17154 710 ft 148 kts 198°
2026-05-04 16:29 5.55196 -0.17033 2554 ft 197 kts 173°
2026-05-04 16:30 5.53546 -0.13344 3293 ft 258 kts 64°
2026-05-04 16:31 5.56415 -0.11087 4655 ft 269 kts 27°
2026-05-04 16:31 5.61546 -0.08589 6998 ft 274 kts 30°
2026-05-04 16:32 5.66614 -0.05985 9586 ft 273 kts 32°
2026-05-04 16:33 5.70072 -0.04172 10568 ft 303 kts 32°
2026-05-04 16:33 5.74101 -0.02069 10908 ft 349 kts 29°
2026-05-04 16:34 5.77978 -0.00431 11623 ft 368 kts 25°
2026-05-04 16:34 5.80365 0.00514 12285 ft 371 kts 25°
2026-05-04 16:35 5.88453 0.03820 14268 ft 384 kts 26°
2026-05-04 16:35 5.95409 0.05715 15780 ft 400 kts
2026-05-04 16:36 5.98179 0.05501 16293 ft 409 kts 353°
2026-05-04 16:36 6.03776 0.04155 17269 ft 417 kts 349°
2026-05-04 16:37 6.09446 0.02695 18230 ft 423 kts 349°
2026-05-04 16:37 6.12308 0.01972 18631 ft 426 kts 349°
2026-05-04 16:37 6.18105 0.00538 19430 ft 431 kts 349°
2026-05-04 16:38 6.23971 -0.00895 20184 ft 436 kts 349°
2026-05-04 16:39 6.32897 -0.03072 21251 ft 443 kts 348°
2026-05-04 16:39 6.38933 -0.04546 21909 ft 448 kts 348°
2026-05-04 16:40 6.44986 -0.06025 22554 ft 453 kts 348°
2026-05-04 16:40 6.51133 -0.07527 23172 ft 457 kts 347°
2026-05-04 16:41 6.57344 -0.09045 23666 ft 461 kts 347°
2026-05-04 16:41 6.66851 -0.10579 24329 ft 464 kts
2026-05-04 16:42 6.76551 -0.10040 24992 ft 467 kts
2026-05-04 16:43 6.83065 -0.09663 25405 ft 470 kts
2026-05-04 16:43 6.89617 -0.09324 25798 ft 472 kts
2026-05-04 16:43 6.92903 -0.09162 25984 ft 474 kts
2026-05-04 16:44 7.06156 -0.08515 26682 ft 479 kts
2026-05-04 16:45 7.12831 -0.08187 26988 ft 482 kts
2026-05-04 16:46 7.22867 -0.07694 27436 ft 485 kts
2026-05-04 16:46 7.29623 -0.07361 27705 ft 487 kts
2026-05-04 16:47 7.36412 -0.07027 27971 ft 489 kts
2026-05-04 16:47 7.43235 -0.06691 28206 ft 491 kts
2026-05-04 16:48 7.53477 -0.06186 28727 ft 490 kts
2026-05-04 16:48 7.56880 -0.06018 28920 ft 490 kts
2026-05-04 16:49 7.63693 -0.05683 29285 ft 490 kts
2026-05-04 16:49 7.70495 -0.05347 29710 ft 489 kts
2026-05-04 16:50 7.77299 -0.05011 30074 ft 489 kts
2026-05-04 16:50 7.84092 -0.04676 30455 ft 489 kts
2026-05-04 16:51 7.90840 -0.04343 30825 ft 489 kts
2026-05-04 16:51 7.94232 -0.04176 31037 ft 488 kts
2026-05-04 16:51 8.01015 -0.03840 31502 ft 487 kts
2026-05-04 16:52 8.07784 -0.03506 31967 ft 486 kts
2026-05-04 16:52 8.11167 -0.03339 32230 ft 486 kts
2026-05-04 16:53 8.17901 -0.03006 32774 ft 484 kts
2026-05-04 16:53 8.27975 -0.02508 33630 ft 481 kts
2026-05-04 16:54 8.31319 -0.02343 33921 ft 481 kts
2026-05-04 16:55 8.44633 -0.01684 34855 ft 480 kts
2026-05-04 16:55 8.51250 -0.01357 34856 ft 477 kts
2026-05-04 16:56 8.67737 -0.00639 34856 ft 472 kts 358°
2026-05-04 16:57 8.77579 -0.00773 34857 ft 472 kts 357°
2026-05-04 16:58 8.90764 -0.00931 34858 ft 475 kts 357°
2026-05-04 17:00 9.10686 -0.01098 34854 ft 478 kts 357°
2026-05-04 17:01 9.27247 -0.01235 34857 ft 477 kts 357°
2026-05-04 17:02 9.40502 -0.01320 34855 ft 476 kts 357°
2026-05-04 17:03 9.50426 -0.01387 34856 ft 475 kts 357°
2026-05-04 17:03 9.60344 -0.01472 34857 ft 475 kts 357°
2026-05-04 17:04 9.73518 -0.01607 34871 ft 475 kts 357°
2026-05-04 17:05 9.86737 -0.01738 34869 ft 475 kts 357°
2026-05-04 17:06 9.96682 -0.01836 34868 ft 476 kts 357°
2026-05-04 17:07 10.05502 -0.01923 34868 ft 476 kts 357°
2026-05-04 17:07 10.13266 -0.01999 34868 ft 477 kts 357°
2026-05-04 17:08 10.23222 -0.02097 34866 ft 477 kts 357°
2026-05-04 17:09 10.29819 -0.02162 34872 ft 477 kts 357°
2026-05-04 17:09 10.36464 -0.02228 34873 ft 478 kts 357°
2026-05-04 17:10 10.53098 -0.02392 34874 ft 478 kts 357°
2026-05-04 17:11 10.59759 -0.02405 34865 ft 480 kts
2026-05-04 17:11 10.66094 -0.00298 34868 ft 487 kts 31°
2026-05-04 17:12 10.68754 0.01834 34887 ft 488 kts 42°
2026-05-04 17:13 10.80926 0.13943 34871 ft 490 kts 43°
2026-05-04 17:14 10.90786 0.23527 34866 ft 490 kts 43°
2026-05-04 17:15 10.98182 0.30726 34866 ft 490 kts 43°
2026-05-04 17:16 11.08798 0.39330 34861 ft 487 kts 33°
2026-05-04 17:17 11.19798 0.47326 34849 ft 487 kts 34°
2026-05-04 17:18 11.30703 0.55510 34843 ft 486 kts 35°
2026-05-04 17:19 11.41572 0.63682 34839 ft 485 kts 34°
2026-05-04 17:20 11.52396 0.71822 34841 ft 484 kts 34°
2026-05-04 17:20 11.60528 0.77942 34838 ft 484 kts 34°
2026-05-04 17:21 11.71371 0.86110 34833 ft 484 kts 34°
2026-05-04 17:22 11.76792 0.90197 34832 ft 485 kts 34°
2026-05-04 17:23 11.86733 0.97696 34831 ft 485 kts 35°
2026-05-04 17:24 11.94886 1.03852 34833 ft 485 kts 35°
2026-05-04 17:25 12.05746 1.12058 34831 ft 485 kts 35°
2026-05-04 17:26 12.16581 1.20255 34828 ft 484 kts 35°
2026-05-04 17:27 12.30113 1.30504 34825 ft 484 kts 35°
2026-05-04 17:28 12.40902 1.38684 34827 ft 485 kts 35°
2026-05-04 17:29 12.57153 1.51025 34800 ft 474 kts 35°
2026-05-04 17:30 12.64697 1.56766 34798 ft 428 kts 34°
2026-05-04 17:31 12.69297 1.60267 34800 ft 401 kts 34°
2026-05-04 17:31 12.75736 1.65165 34820 ft 379 kts 34°
2026-05-04 17:32 12.80083 1.68467 34839 ft 397 kts 34°
2026-05-04 17:33 12.89026 1.75282 34808 ft 400 kts 34°
2026-05-04 17:34 12.97868 1.82028 34804 ft 393 kts 34°
2026-05-04 17:35 13.08770 1.90352 34818 ft 391 kts 34°
2026-05-04 17:36 13.13053 1.93803 34793 ft 396 kts 47°
2026-05-04 17:36 13.14602 1.96141 34844 ft 397 kts 58°
2026-05-04 17:36 13.15964 1.98622 34808 ft 401 kts 59°
2026-05-04 17:37 13.18637 2.03665 34805 ft 404 kts 59°
2026-05-04 17:37 13.21348 2.08728 34803 ft 406 kts 59°
2026-05-04 17:38 13.24082 2.13766 34790 ft 406 kts 59°
2026-05-04 17:38 13.26836 2.18821 34785 ft 405 kts 59°
2026-05-04 17:39 13.30945 2.26370 34777 ft 402 kts 59°
2026-05-04 17:39 13.33668 2.31377 34779 ft 401 kts 58°
2026-05-04 17:40 13.36383 2.36370 34786 ft 400 kts 58°
2026-05-04 17:40 13.37933 2.38719 34762 ft 395 kts 41°
2026-05-04 17:40 13.40087 2.40378 34803 ft 384 kts 21°
2026-05-04 17:41 13.42584 2.41290 34791 ft 377 kts
2026-05-04 17:41 13.45163 2.41391 34779 ft 367 kts 343°
2026-05-04 17:41 13.47471 2.40419 34761 ft 355 kts 317°
2026-05-04 17:41 13.49027 2.38527 34776 ft 346 kts 291°
2026-05-04 17:42 13.49527 2.36176 34783 ft 344 kts 265°
2026-05-04 17:42 13.49136 2.33753 34823 ft 346 kts 261°
2026-05-04 17:42 13.48671 2.28789 34782 ft 353 kts 268°
2026-05-04 17:43 13.48466 2.23713 34783 ft 357 kts 268°
2026-05-04 17:43 13.48245 2.18691 34821 ft 345 kts 268°
2026-05-04 17:44 13.48018 2.13738 34786 ft 349 kts 268°
2026-05-04 17:44 13.47793 2.08750 34773 ft 349 kts 268°
2026-05-04 17:45 13.47564 2.03771 34777 ft 349 kts 268°
2026-05-04 17:45 13.47337 1.98799 34785 ft 348 kts 268°
2026-05-04 17:46 13.47107 1.93823 34790 ft 349 kts 268°
2026-05-04 17:46 13.46878 1.88849 34794 ft 349 kts 268°
2026-05-04 17:47 13.46647 1.83866 34804 ft 349 kts 268°
2026-05-04 17:47 13.46452 1.79647 34804 ft 350 kts 268°
2026-05-04 17:48 13.46179 1.74658 34735 ft 351 kts 260°
2026-05-04 17:48 13.45314 1.72312 34008 ft 360 kts 237°
2026-05-04 17:48 13.43514 1.70448 32793 ft 380 kts 216°
2026-05-04 17:49 13.41089 1.69195 31403 ft 403 kts 201°
2026-05-04 17:49 13.38273 1.68591 30003 ft 425 kts 186°
2026-05-04 17:49 13.35271 1.68734 28448 ft 441 kts 170°
2026-05-04 17:49 13.32327 1.69735 26974 ft 450 kts 154°
2026-05-04 17:50 13.29722 1.71538 25614 ft 455 kts 136°
2026-05-04 17:50 13.27615 1.73949 24355 ft 454 kts 127°
2026-05-04 17:50 13.25772 1.76569 23136 ft 450 kts 123°
2026-05-04 17:50 13.23999 1.79192 21784 ft 445 kts 124°
2026-05-04 17:51 13.22201 1.81745 20518 ft 439 kts 125°
2026-05-04 17:51 13.20362 1.84219 19323 ft 433 kts 126°
2026-05-04 17:51 13.18543 1.86599 18210 ft 426 kts 126°
2026-05-04 17:51 13.16717 1.89002 16959 ft 417 kts 123°
2026-05-04 17:52 13.15467 1.91588 15751 ft 406 kts 104°
2026-05-04 17:52 13.15082 1.94448 14617 ft 396 kts 89°
2026-05-04 17:52 13.15382 1.97175 13568 ft 387 kts 77°
2026-05-04 17:52 13.16314 1.99736 12409 ft 380 kts 63°
2026-05-04 17:53 13.17565 2.02100 11329 ft 373 kts 60°
2026-05-04 17:53 13.18844 2.04385 10573 ft 360 kts 59°
2026-05-04 17:53 13.20044 2.06508 10502 ft 331 kts 60°
2026-05-04 17:53 13.21161 2.08499 10362 ft 314 kts 60°
2026-05-04 17:54 13.22224 2.10413 10239 ft 304 kts 60°
2026-05-04 17:54 13.23266 2.12301 10133 ft 306 kts 60°
2026-05-04 17:54 13.24296 2.14179 9985 ft 294 kts 60°
2026-05-04 17:54 13.25265 2.15951 9870 ft 277 kts 60°
2026-05-04 17:55 13.26193 2.17650 9656 ft 271 kts 60°
2026-05-04 17:55 13.27112 2.19334 9300 ft 270 kts 60°
2026-05-04 17:55 13.28027 2.21013 8950 ft 269 kts 60°
2026-05-04 17:55 13.28925 2.22662 8619 ft 268 kts 60°
2026-05-04 17:56 13.29844 2.24349 8270 ft 267 kts 60°
2026-05-04 17:56 13.30737 2.25991 7924 ft 267 kts 60°
2026-05-04 17:56 13.31644 2.27656 7564 ft 268 kts 60°
2026-05-04 17:56 13.32550 2.29322 7210 ft 268 kts 60°
2026-05-04 17:57 13.33460 2.30996 6858 ft 268 kts 60°
2026-05-04 17:57 13.34371 2.32671 6500 ft 270 kts 60°
2026-05-04 17:57 13.35286 2.34354 6152 ft 270 kts 60°
2026-05-04 17:57 13.36203 2.36040 5786 ft 270 kts 60°
2026-05-04 17:58 13.37118 2.37724 5443 ft 270 kts 60°
2026-05-04 17:58 13.38032 2.39404 5167 ft 267 kts 59°
2026-05-04 17:58 13.39222 2.40798 5008 ft 257 kts 32°
2026-05-04 17:58 13.40855 2.41473 4720 ft 254 kts
2026-05-04 17:59 13.42614 2.41545 4427 ft 252 kts 357°
2026-05-04 17:59 13.44345 2.41451 4258 ft 245 kts 355°
2026-05-04 17:59 13.47573 2.40909 3993 ft 228 kts 326°
2026-05-04 18:00 13.48639 2.39786 3973 ft 217 kts 299°
2026-05-04 18:00 13.49113 2.38337 3970 ft 213 kts 275°
2026-05-04 18:00 13.49126 2.36844 3762 ft 213 kts 267°
2026-05-04 18:00 13.49044 2.35331 3380 ft 214 kts 266°
2026-05-04 18:01 13.48960 2.33809 3055 ft 212 kts 267°
2026-05-04 18:01 13.48885 2.32358 2966 ft 196 kts 267°
2026-05-04 18:01 13.48818 2.30990 2702 ft 186 kts 267°
2026-05-04 18:02 13.48696 2.28461 2263 ft 172 kts 266°
2026-05-04 18:02 13.48642 2.27307 2073 ft 150 kts 267°
2026-05-04 18:02 13.48595 2.26299 1843 ft 134 kts 266°
2026-05-04 18:02 13.48540 2.25337 1654 ft 142 kts 265°
2026-05-04 18:03 13.48484 2.24278 1510 ft 151 kts 267°
2026-05-04 18:03 13.48436 2.23203 1332 ft 149 kts 268°
2026-05-04 18:03 13.48401 2.22142 1096 ft 148 kts 268°
2026-05-04 18:03 13.48352 2.21088 900 ft 147 kts 269°
2026-05-04 18:04 13.48305 2.20051 756 ft 144 kts 270°
2026-05-04 18:04 13.48262 2.19102 722 ft 108 kts 268°
2026-05-04 18:04 13.48219 2.18095 725 ft 55 kts 267°
2026-05-04 18:05 13.48199 2.17752 724 ft 28 kts 265°
2026-05-04 18:05 13.48083 2.17640 724 ft 25 kts 178°
2026-05-04 18:05 13.47914 2.17647 724 ft 23 kts 178°
2026-05-04 18:05 13.47807 2.17662 726 ft 11 kts 147°
2026-05-04 18:06 13.47794 2.17676 724 ft 0 kts 131°